Location: Powder Track
(41.8531°N, 72.3584°W)
Time: 02:22:19
(UTC+00:00)

Vanguard 1 Rocket - Pass Details

Date: 08 August 2021
Orbit: 650 x 4226 km, 34.3° (Epoch: 16 September)

Event Time Altitude Azimuth Distance (km) Brightness Sun altitude
Rises 20:09:17 0° 277° (W) 5,787 12.2 41.1°
Reaches altitude 10° 20:17:11 10° 248° (WSW) 3,773 11.8 39.6°
Maximum altitude 20:19:35 11° 233° (SW) 3,371 11.4 39.2°
Drops below altitude 10° 20:21:41 10° 217° (SW) 3,194 11.0 38.8°
Sets 20:26:30 0° 182° (S) 3,574 10.6 38.0°
